Showing default

MUOS 5, 41622

Orbit data source: Space-Track

MUOS 5, 41622 is a payload satellite owned by SPAWAR Pacific (US) that was launched on Fri, 24 Jun 2016 UTC via an ATLAS V 551 launch vehicle from the Air Force Eastern Test Range (AFETR). Payloads include a variety of satellites, spacecraft, and rockets equipped with specific instruments for various scientific and technological missions. These include communications satellites like Starlink; space stations such as the ISS; scientific satellites like the Hubble; Earth observation satellites from companies like Planet Labs, Umbra, and HawkEye 360; GPS; miniature CubeSats for education and research; and military/defense satellites.

Loading next visibility...
MUOS 5 details
Identifier
41622, 2016-041A
Orbit
Active
Last TLE update23 hours ago
Origin
Flag of USSPAWAR Pacific (US)
ManufacturerLMSS/LMCSS
MissionOperational Defense Communications
Bus & MotorA2100, BT-4
Mass6,800 kg wet, 3,800 kg dry
Launch date (UTC)
2016-06-24 (8 years ago)
Launch vehicle
ATLAS V 551
Launch site
Air Force Eastern Test Range (AFETR)
Object type
Payload
Rocket body
Debris
Shape & HBRBox + 2 Pan + 1 Dish, 28.7 m
Radar Cross Section71.298 m², Large (>1 m²)

Expand to show TLE details & history

TLE from 23 hours ago
0 MUOS 5
1 41622U 16041A   24339.46606021 -.00000088  00000-0  00000-0 0  9990
2 41622   3.4790 296.8325 0198346 257.5758 302.1636  1.00271794 31472
Epoch: 2024-12-04T11:11Z
Definitive object data (Epoch: 2024-12-04T11:11:07.602Z)
Latitude-1.05739°
Longitude-106.98519°
Altitude35,357.877 km
Speed3.106 km/s
True Right ascension08h 58m 13s
True Declination-1° 03' 23"
Sunlit
Object was in daylight at TLE epoch
Visualization TLE readout
Latitude-0.04548°
Longitude-123.79082°
Altitude35,581.656 km
Speed3.09 km/s
Apparent Right ascension07h 49m 54s
Apparent Declination-6° 19' 07"
Sunlit
Object is in daylight
Visualization observer readout
Local Sidereal Time07:59:20
Azimuth183.247° SSW
Elevation43.714°
Doppler factor1
Orbital elements
Apogee altitude36,623.999 km
Perigee altitude34,951.316 km
Semi-major axis42,165.795 km
Eccentricity0.0198346
Inclination3.479°
RAAN296.8325°
Arg. of periapsis257.5758°
True anomaly300.21419°
Mean anomaly302.1636°
Eccentric anomaly301.19144°
Mean motion0.25067 °/min
BSTARUnknown
Orbital period1436.15 mins
Loading maneuver chart data...
Loading historical data...
Loading historical data...
Loading historical data...
Loading historical data...
Loading historical data...
Loading historical data...
Loading historical data...
Other satellites on launch #41 in the year 2016 (2016-06-24 UTC)

MUOS 5 Visibility forecast

Observer location: undefined°, undefined

Span
Click to sort rows by Start time (UTC) header in descending order
Start Az.
Max El. time (UTC)
Max El. Az.
Max El.
End time (UTC)
End Az.
1440 mins2024-12-05 10:01:01.505Z183.245° SSW2024-12-06 03:52:01.505Z180.684° SSW36.564°2024-12-06 10:01:01.505Z183.225° SSW
|